Regional Weather Roundup
Issued by NWS

Home | Current Version | Previous Version | Graphics & Text | Print | Product List | Glossary On
Versions: 1 2 3 4 5 6 7 8 9 10 11 12 13 14 15 16 17 18 19 20 21 22 23 24 25 26 27 28 29 30 31 32 33 34 35 36 37 38 39 40 41 42 43 44 45 46 47 48 49 50
193
ASUS43 KFSD 291210
RWRSD

WEATHER ROUNDUP FOR SOUTH DAKOTA
NATIONAL WEATHER SERVICE SIOUX FALLS SD
700 AM CDT THU JUN 29 2017

NOTE: "FAIR" INDICATES FEW OR NO CLOUDS BELOW 12,000 FEET WITH NO
SIGNIFICANT WEATHER AND/OR OBSTRUCTIONS TO VISIBILITY.


SDZ001>005-009-010-012>017-291300-
NORTHWEST AND NORTH CENTRAL SOUTH DAKOTA

CITY           SKY/WX    TMP DP  RH WIND       PRES   REMARKS
BUFFALO          N/A     58  55  90 W17       29.79R
FAITH            N/A     57  57 100 E6        29.83S
MOBRIDGE       CLOUDY    62  50  64 N3        29.78R
$$

SDZ012>016-024>037-041>051-057-063-072>074-291300-
SOUTHWEST AND SOUTH CENTRAL SOUTH DAKOTA

CITY           SKY/WX    TMP DP  RH WIND       PRES   REMARKS
RAPID CTY ARPT CLOUDY    59  52  77 N12       29.85R
PIERRE         CLOUDY    59  47  64 CALM      29.79R
CUSTER         PTCLDY    47  40  76 NW8       29.94R
ELLSWORTH AFB  CLOUDY    60  53  77 NW15      29.85R
PHILIP         MOCLDY    59  49  69 NE6       29.80R
PINE RIDGE     CLEAR     51  51 100 CALM      29.83R
SPEARFISH      RAIN      54  54 100 S5        29.90F
WINNER         PTSUNNY   62  53  72 W5        29.79R
$$

SDZ004>011-016>023-039-040-291300-
NORTHEAST SOUTH DAKOTA

CITY           SKY/WX    TMP DP  RH WIND       PRES   REMARKS
ABERDEEN       CLOUDY    56  51  84 N3        29.77R
WATERTOWN      FOG       54  53  97 NE3       29.78R VSB<1/4
BROOKINGS      CLOUDY    56  54  93 CALM      29.79R
SISSETON         N/A     61  61 100 W7        29.78R
$$

SDZ017-020-022-023-036>040-048>070-291300-
SOUTHEAST SOUTH DAKOTA

CITY           SKY/WX    TMP DP  RH WIND       PRES   REMARKS
SIOUX FALLS    CLOUDY    63  62  97 CALM      29.79R
HURON          CLOUDY    57  50  77 SW5       29.78R
CHAMBERLAIN    CLOUDY    61  46  56 E6        29.78R
MITCHELL       CLOUDY    59  52  77 S5        29.80R
YANKTON        MOCLDY    63  60  90 NE3       29.76F
$$

ABBREVIATIONS USED IN REMARKS
   TC - TEMPERATURE IN CELSIUS
  WCI - WIND CHILL INDEX
   HX - HEAT INDEX
  VSB - VISIBILITY





USA.gov is the U.S. government's official web portal to all federal, state and local government web resources and services.